EKRAN 7

导读

EKRAN 7卫星于1981年6月26日由独联体(CIS)前身苏联发射,属于苏联早期“EkRAN”(屏幕)通信卫星系列,是苏联最早开发的地球同步轨道卫星之一。该系列卫星主要承担民用通信与电视广播传输任务,为后续苏联“地平线”等通信卫星发展奠定技术基础,是冷战时期苏联航天通信领域发展的重要见证。

基本信息
目录编号:
12564
目录名称:
EKRAN 7
国际标识:
1981-061A
轨道中心:
EARTH
卫星名称:
EKRAN 7
卫星全名:
--
卫星状态:
在轨 (已飞行16427 天)
发射日期:
1981-06-26 UTC
国别 :
俄罗斯(独联体) (CIS)
星等 :
--
轨道信息
数据来源 国际轨道数据 AOE轨道数据
星历时间 2026-06-17T01:55:26+0800
1天前
查看轨道信息
2026-06-17T05:00:00+0800
21小时前
查看轨道信息
半长轴 42176.506km 42176.478km
偏心率 0.0004751 0.000474
轨道倾角 6.529° 6.528°
近地点辐角 64.435° 64.198°
升交点赤经 293.086° 293.086°
平近点角 268.227° 314.715°
近地点 35778.33km 35778.349km
远地点 35818.408km 35818.333km
周期 1436.698分钟 1436.697分钟
每日圈数 1.002298 1.002299
详细信息
使用方式:
暂无
2D轨道图
3D轨道图
轨道高度分析图
轨道倾角分析图
轨道综合分析图
查看轨道综合分析图